| time (UTC) | temp F | wind direction | speed knots | gust knots | rain 1hr in | rain 24hr in | rain mn in | humidity % | barometer mb |
| 20260507012336 | 59 | 54 | 0.9 | 5.2 | 0.00 | 0.00 | 0.00 | 53 | 1015.4 |
| 20260507011543 | 60 | 71 | 0.9 | 7.8 | 0.00 | 0.00 | 0.00 | 51 | 1015.4 |
| 20260507005332 | 61 | 84 | 1.7 | 6.1 | 0.00 | 0.00 | 0.00 | 52 | 1015.4 |
| 20260507003832 | 61 | 37 | 1.7 | 7.8 | 0.00 | 0.00 | 0.00 | 52 | 1015.5 |
| 20260507003029 | 62 | 52 | 0.9 | 7.0 | 0.00 | 0.00 | 0.00 | 50 | 1015.3 |
| 20260507000829 | 63 | 45 | 3.5 | 8.7 | 0.00 | 0.00 | 0.00 | 49 | 1015.3 |
| 20260506235329 | 63 | 63 | 2.6 | 6.1 | 0.00 | 0.00 | 0.00 | 48 | 1015.3 |
| 20260506233829 | 64 | 35 | 2.6 | 7.8 | 0.00 | 0.00 | 0.00 | 47 | 1015.2 |
| 20260506232328 | 65 | 55 | 0.9 | 8.7 | 0.00 | 0.00 | 0.00 | 48 | 1015.2 |
| 20260506230829 | 65 | 49 | 1.7 | 5.2 | 0.00 | 0.00 | 0.00 | 48 | 1015.0 |
| 20260506225331 | 65 | 33 | 1.7 | 4.3 | 0.00 | 0.00 | 0.00 | 48 | 1015.0 |
| 20260506223829 | 64 | 91 | 2.6 | 7.8 | 0.00 | 0.00 | 0.00 | 48 | 1014.9 |
| 20260506222329 | 65 | 92 | 1.7 | 6.1 | 0.00 | 0.00 | 0.00 | 49 | 1014.7 |
| 20260506220829 | 64 | 42 | 2.6 | 9.6 | 0.00 | 0.00 | 0.00 | 51 | 1014.7 |
| 20260506215329 | 63 | 30 | 3.5 | 11.3 | 0.00 | 0.00 | 0.00 | 50 | 1014.7 |
| 20260506213829 | 64 | 70 | 2.6 | 9.6 | 0.00 | 0.00 | 0.00 | 51 | 1014.7 |
| 20260506212329 | 63 | 14 | 4.3 | 9.6 | 0.00 | 0.00 | 0.00 | 52 | 1014.9 |
| 20260506210828 | 62 | 31 | 3.5 | 9.6 | 0.00 | 0.00 | 0.00 | 52 | 1014.9 |
| 20260506210031 | 62 | 72 | 4.3 | 9.6 | 0.00 | 0.00 | 0.00 | 51 | 1015.0 |
| 20260506203830 | 63 | 40 | 3.5 | 8.7 | 0.00 | 0.00 | 0.00 | 54 | 1015.3 |
| 20260506202328 | 62 | 3 | 4.3 | 8.7 | 0.00 | 0.00 | 0.00 | 52 | 1015.2 |
| 20260506201520 | 62 | 53 | 4.3 | 11.3 | 0.00 | 0.00 | 0.00 | 54 | 1015.3 |
| 20260506195329 | 62 | 13 | 4.3 | 10.4 | 0.00 | 0.00 | 0.00 | 52 | 1015.2 |
| 20260506194524 | 62 | 53 | 4.3 | 10.4 | 0.00 | 0.00 | 0.00 | 52 | 1015.3 |
| 20260506193130 | 63 | 20 | 3.5 | 11.3 | 0.00 | 0.00 | 0.00 | 51 | 1015.3 |
| 20260506192918 | 64 | 38 | 2.6 | 7.8 | 0.00 | 0.00 | 0.00 | 49 | 1015.7 |
| 20260506190034 | 63 | 37 | 2.6 | 14.8 | 0.00 | 0.00 | 0.00 | 49 | 1015.6 |
| 20260506183831 | 62 | 105 | 3.5 | 10.4 | 0.00 | 0.00 | 0.00 | 52 | 1015.9 |
| 20260506182329 | 61 | 40 | 3.5 | 11.3 | 0.00 | 0.00 | 0.00 | 53 | 1015.9 |
| 20260506180830 | 62 | 64 | 2.6 | 10.4 | 0.00 | 0.00 | 0.00 | 51 | 1016.1 |
| 20260506175329 | 61 | 37 | 1.7 | 6.1 | 0.00 | 0.00 | 0.00 | 55 | 1016.2 |
| 20260506173829 | 60 | 62 | 2.6 | 6.1 | 0.00 | 0.00 | 0.00 | 52 | 1016.4 |
| 20260506172329 | 60 | 64 | 2.6 | 9.6 | 0.00 | 0.00 | 0.00 | 54 | 1016.3 |
| 20260506170828 | 59 | 78 | 1.7 | 10.4 | 0.00 | 0.00 | 0.00 | 57 | 1016.2 |
| 20260506165328 | 58 | 48 | 2.6 | 6.1 | 0.00 | 0.00 | 0.00 | 58 | 1016.1 |
| 20260506163829 | 57 | 42 | 2.6 | 9.6 | 0.00 | 0.00 | 0.00 | 61 | 1016.3 |
| 20260506162328 | 56 | 77 | 2.6 | 6.1 | 0.00 | 0.00 | 0.00 | 64 | 1016.3 |
| 20260506160829 | 54 | 73 | 2.6 | 9.6 | 0.00 | 0.00 | 0.00 | 66 | 1016.2 |
| 20260506155330 | 53 | 50 | 2.6 | 7.0 | 0.00 | 0.00 | 0.00 | 69 | 1016.0 |
| 20260506154516 | 52 | 38 | 5.2 | 13.0 | 0.00 | 0.00 | 0.00 | 70 | 1015.8 |
| 20260506152329 | 53 | 86 | 3.5 | 11.3 | 0.00 | 0.00 | 0.00 | 72 | 1015.6 |
| 20260506150828 | 51 | 66 | 3.5 | 13.0 | 0.00 | 0.00 | 0.00 | 73 | 1015.3 |
| 20260506145329 | 51 | 37 | 4.3 | 15.6 | 0.00 | 0.00 | 0.00 | 74 | 1014.9 |
| 20260506143829 | 50 | 77 | 5.2 | 16.5 | 0.00 | 0.00 | 0.00 | 76 | 1014.5 |
| 20260506143024 | 49 | 12 | 4.3 | 13.9 | 0.00 | 0.00 | 0.00 | 78 | 1014.1 |
| 20260506140829 | 49 | 6 | 6.1 | 14.8 | 0.00 | 0.00 | 0.00 | 78 | 1014.3 |
| 20260506140023 | 49 | 124 | 5.2 | 13.0 | 0.00 | 0.00 | 0.00 | 78 | 1014.3 |
| 20260506133828 | 49 | 59 | 5.2 | 13.0 | 0.00 | 0.00 | 0.00 | 79 | 1014.4 |
| 20260506133028 | 48 | 83 | 5.2 | 13.0 | 0.00 | 0.00 | 0.00 | 78 | 1014.5 |
| 20260506130829 | 48 | 10 | 5.2 | 13.9 | 0.00 | 0.00 | 0.00 | 81 | 1014.8 |
| 20260506125328 | 48 | 1 | 5.2 | 11.3 | 0.00 | 0.00 | 0.00 | 82 | 1014.6 |
| 20260506124524 | 48 | 53 | 6.1 | 13.9 | 0.00 | 0.00 | 0.00 | 82 | 1014.4 |
| 20260506122328 | 48 | 51 | 5.2 | 13.0 | 0.00 | 0.00 | 0.00 | 82 | 1014.1 |
| 20260506122240 | 47 | 31 | 4.3 | 12.2 | 0.00 | 0.00 | 0.00 | 82 | 1013.5 |
| 20260506115328 | 47 | 21 | 5.2 | 14.8 | 0.00 | 0.00 | 0.00 | 81 | 1013.4 |
| 20260506114519 | 47 | 43 | 5.2 | 9.6 | 0.00 | 0.00 | 0.00 | 81 | 1013.5 |
| 20260506112328 | 47 | 35 | 5.2 | 10.4 | 0.00 | 0.00 | 0.00 | 81 | 1013.0 |
| 20260506110829 | 47 | 59 | 4.3 | 8.7 | 0.00 | 0.00 | 0.00 | 82 | 1013.1 |
| 20260506110026 | 47 | 41 | 3.5 | 7.0 | 0.00 | 0.00 | 0.00 | 82 | 1013.1 |
| 20260506103829 | 47 | 86 | 3.5 | 9.6 | 0.00 | 0.00 | 0.00 | 82 | 1013.7 |
| 20260506103028 | 47 | 47 | 3.5 | 7.8 | 0.00 | 0.00 | 0.00 | 81 | 1013.3 |
| 20260506100829 | 47 | 13 | 2.6 | 9.6 | 0.00 | 0.00 | 0.00 | 79 | 1013.5 |
| 20260506095328 | 47 | 24 | 3.5 | 8.7 | 0.00 | 0.00 | 0.00 | 78 | 1013.5 |
| 20260506093828 | 48 | 25 | 2.6 | 7.0 | 0.00 | 0.00 | 0.00 | 77 | 1013.2 |
| 20260506092328 | 48 | 40 | 4.3 | 10.4 | 0.00 | 0.00 | 0.00 | 76 | 1012.7 |
| 20260506090828 | 48 | 9 | 4.3 | 10.4 | 0.00 | 0.00 | 0.00 | 75 | 1012.5 |
| 20260506090030 | 48 | 26 | 4.3 | 12.2 | 0.00 | 0.00 | 0.00 | 74 | 1012.5 |
| 20260506083828 | 48 | 40 | 5.2 | 13.0 | 0.00 | 0.00 | 0.00 | 73 | 1012.2 |
| 20260506082329 | 48 | 49 | 5.2 | 11.3 | 0.00 | 0.00 | 0.00 | 73 | 1011.5 |
| 20260506080829 | 48 | 74 | 5.2 | 12.2 | 0.00 | 0.00 | 0.00 | 74 | 1011.5 |
| 20260506072329 | 48 | 18 | 3.5 | 11.3 | 0.00 | 0.00 | 0.00 | 74 | 1010.7 |
| 20260506070828 | 48 | 58 | 3.5 | 10.4 | 0.00 | 0.00 | 0.00 | 74 | 1010.8 |
| 20260506062330 | 48 | 69 | 3.5 | 9.6 | 0.00 | 0.00 | 0.00 | 71 | 1010.8 |
| 20260506061527 | 48 | 91 | 3.5 | 11.3 | 0.00 | 0.00 | 0.00 | 71 | 1010.9 |
| 20260506050829 | 48 | 49 | 5.2 | 13.9 | 0.00 | 0.00 | 0.00 | 75 | 1010.7 |
| 20260506043829 | 48 | 56 | 6.1 | 13.0 | 0.00 | 0.00 | 0.00 | 78 | 1010.9 |
| 20260506042329 | 48 | 29 | 5.2 | 13.0 | 0.00 | 0.00 | 0.00 | 79 | 1011.0 |
| 20260506040829 | 48 | 39 | 6.1 | 13.0 | 0.00 | 0.00 | 0.00 | 80 | 1010.9 |
| 20260506040028 | 48 | 30 | 4.3 | 13.9 | 0.00 | 0.00 | 0.00 | 81 | 1010.8 |
| 20260506033830 | 48 | 37 | 4.3 | 13.0 | 0.00 | 0.00 | 0.00 | 83 | 1009.4 |
| 20260506032328 | 48 | 62 | 5.2 | 15.6 | 0.00 | 0.00 | 0.00 | 83 | 1009.1 |
| 20260506030829 | 48 | 82 | 6.1 | 16.5 | 0.00 | 0.00 | 0.00 | 84 | 1008.7 |
| 20260506025329 | 48 | 18 | 6.1 | 13.0 | 0.00 | 0.00 | 0.00 | 84 | 1008.4 |
| 20260506023828 | 49 | 18 | 6.1 | 13.0 | 0.00 | 0.00 | 0.00 | 84 | 1008.0 |
| 20260506022329 | 49 | 56 | 6.1 | 13.9 | 0.00 | 0.00 | 0.00 | 84 | 1008.0 |
| 20260506021521 | 49 | 65 | 5.2 | 13.9 | 0.00 | 0.00 | 0.00 | 83 | 1007.9 |
| 20260506015328 | 49 | 37 | 5.2 | 13.0 | 0.00 | 0.00 | 0.00 | 83 | 1008.0 |
| 20260506013829 | 49 | 11 | 5.2 | 13.0 | 0.00 | 0.00 | 0.00 | 83 | 1007.7 |